PST,Max TemperatureF,Mean TemperatureF,Min TemperatureF,Max Dew PointF,MeanDew PointF,Min DewpointF,Max Humidity, Mean Humidity, Min Humidity, Max Sea Level PressureIn, Mean Sea Level PressureIn, Min Sea Level PressureIn, Max VisibilityMiles, Mean VisibilityMiles, Min VisibilityMiles, Max Wind SpeedMPH, Mean Wind SpeedMPH, Max Gust SpeedMPH,PrecipitationIn, CloudCover, Events, WindDirDegrees
2012-12-1,66,61,56,61,58,55,100,91,81,30.18,30.13,30.09,10,6,0,13,3,,0.06,7,Fog-Rain,218
2012-12-2,67,65,62,61,59,55,93,81,68,30.15,30.11,30.07,10,8,2,10,2,23,0.18,8,Rain,180
2012-12-3,71,64,57,63,60,54,93,80,66,30.19,30.13,30.10,10,6,2,10,3,23,0.42,6,Rain,234
2012-12-4,68,61,54,57,55,53,93,81,68,30.25,30.19,30.14,10,5,2,13,4,14,0.00,4,,315
2012-12-5,66,60,54,57,55,52,100,87,73,30.15,30.09,30.01,7,3,0,6,1,8,0.00,6,Fog,111
2012-12-6,67,62,56,57,55,53,86,77,67,30.01,29.95,29.88,8,5,3,12,2,24,0.00,5,,276
2012-12-7,65,60,55,56,55,52,100,87,73,29.99,29.94,29.91,4,2,0,7,1,9,0.00,4,Fog,172
2012-12-8,66,59,51,56,53,48,100,84,67,30.00,29.95,29.91,4,2,0,7,1,8,0.00,6,Fog,134
2012-12-9,66,59,52,54,53,48,89,76,63,30.12,30.05,29.98,4,3,2,8,3,,0.00,4,,37
2012-12-10,76,63,49,54,47,35,93,58,23,30.14,30.10,30.04,10,5,1,13,3,15,0.00,3,,307
2012-12-11,67,57,47,55,50,42,86,75,63,30.06,30.01,29.95,10,7,2,9,2,10,0.00,3,,146
2012-12-12,63,59,55,54,51,47,86,71,56,29.98,29.92,29.85,10,8,4,10,3,,0.12,8,Rain,141
2012-12-13,61,57,53,54,48,39,93,72,51,29.83,29.79,29.73,10,9,2,21,4,,0.13,6,Rain,255
2012-12-14,59,52,44,45,42,36,86,65,43,30.02,29.90,29.77,10,10,8,15,4,20,0.05,4,Rain,342
2012-12-15,61,54,47,45,41,34,86,61,36,30.10,30.02,29.98,10,10,7,18,6,23,0.01,4,Rain,320
2012-12-16,57,56,54,52,48,39,86,69,51,30.18,30.14,30.10,10,7,2,12,5,,0.01,8,Rain,76
2012-12-17,64,60,55,53,51,48,93,79,64,30.18,30.10,30.01,10,8,6,10,3,13,0.00,8,,315
2012-12-18,62,56,49,56,46,21,93,60,27,30.04,29.91,29.81,10,8,2,28,12,37,0.16,6,Rain,258
2012-12-19,61,51,41,29,24,18,57,39,20,30.27,30.18,30.04,10,10,10,23,6,30,0.00,0,,335
2012-12-20,67,54,41,38,23,14,54,34,13,30.22,30.15,30.07,10,10,9,13,5,15,0.00,0,,324
2012-12-21,66,54,41,42,33,24,76,50,24,30.14,30.08,30.04,10,10,9,9,2,10,0.00,0,,274
2012-12-22,61,52,42,52,45,37,86,70,53,30.20,30.15,30.08,10,8,5,9,3,12,T,4,Rain,209
2012-12-23,62,57,52,52,51,48,89,81,72,30.23,30.17,30.12,10,9,4,10,3,15,T,7,Rain,167
2012-12-24,65,58,51,58,53,48,93,83,72,30.12,30.07,30.00,10,6,2,15,5,20,0.98,6,Rain,79
2012-12-25,62,56,49,52,48,42,100,76,51,30.10,30.07,29.99,10,4,0,8,1,,0.00,5,Fog,306
2012-12-26,62,56,50,52,47,38,89,70,51,30.01,29.95,29.92,10,7,2,20,8,25,0.12,5,Rain,261
2012-12-27,63,53,43,41,36,32,71,52,32,30.10,30.01,29.95,10,10,10,18,7,22,0.00,0,,303
2012-12-28,63,53,42,43,37,27,80,53,25,30.18,30.11,30.08,10,10,7,8,1,13,0.00,0,,209
2012-12-29,55,50,44,47,40,32,89,73,56,30.09,30.04,29.98,10,9,4,13,3,18,0.16,4,Rain,22
2012-12-30,59,49,39,44,40,36,92,68,43,30.07,29.99,29.92,10,9,4,15,2,18,T,1,,271
2012-12-31,57,47,36,43,39,35,92,74,55,30.25,30.19,30.09,10,8,4,9,2,13,0.00,0,,197